QPF
0.00 0.01 0.07 0.11 0.06 0.08 0.21 0.21 0.11 0.05 0.01 0.00 0.00 0.00 0.00 0.00 0.00 0.00 0.00 0.00 0.01 0.01 0.01 0.01 0.01 0.01 0.01 0.01 0.01 0.00 0.00 0.00 0.00 0.00 0.00 0.00 0.00 0.00 0.00 0.00 0.00 0.00 0.00
0.00 0.02 0.13 0.30 0.13 0.08 0.12 0.22 0.15 0.05 0.00 0.00 0.00 0.00 0.00 0.00 0.00 0.00 0.00 0.00 0.01 0.01 0.01 0.01 0.01 0.01 0.01 0.01 0.00 0.00 0.00 0.00 0.00 0.00 0.00 0.00 0.00 0.00 0.00 0.00 0.00 0.00 0.00
0.00 0.01 0.11 0.22 0.25 0.20 0.16 0.20 0.21 0.09 0.01 0.00 0.00 0.00 0.00 0.00 0.00 0.00 0.00 0.00 0.00 0.00 0.01 0.01 0.01 0.01 0.01 0.00 0.00 0.00 0.00 0.00 0.00 0.00 0.00 0.00 0.00 0.00 0.00 0.00 0.00 0.00 0.00
0.00 0.00 0.05 0.27 0.24 0.22 0.17 0.18 0.15 0.08 0.01 0.00 0.00 0.00 0.00 0.00 0.00 0.00 0.00 0.00 0.00 0.00 0.00 0.00 0.01 0.01 0.01 0.00 0.00 0.00 0.00 0.00 0.00 0.00 0.00 0.00 0.00 0.00 0.00 0.00 0.00 0.00 0.00
0.00 0.00 0.01 0.12 0.36 0.22 0.12 0.18 0.14 0.07 0.01 0.00 0.00 0.00 0.00 0.00 0.00 0.00 0.00 0.00 0.00 0.00 0.00 0.00 0.00 0.00 0.00 0.00 0.00 0.00 0.00 0.00 0.00 0.00 0.00 0.00 0.00 0.00 0.00 0.00 0.00 0.00 0.00
0.00 0.00 0.00 0.00 0.16 0.23 0.14 0.18 0.16 0.09 0.03 0.00 0.00 0.00 0.00 0.00 0.00 0.00 0.00 0.00 0.00 0.00 0.00 0.00 0.00 0.00 0.00 0.00 0.00 0.00 0.00 0.00 0.00 0.00 0.00 0.00 0.00 0.00 0.00 0.00 0.00 0.00 0.00
0.03 0.00 0.00 0.00 0.01 0.05 0.08 0.10 0.11 0.07 0.02 0.00 0.00 0.00 0.00 0.00 0.00 0.00 0.00 0.00 0.00 0.00 0.00 0.00 0.00 0.00 0.00 0.00 0.00 0.00 0.00 0.00 0.00 0.00 0.00 0.00 0.00 0.00 0.00 0.00 0.00 0.00 0.00
0.04 0.07 0.01 0.01 0.01 0.03 0.01 0.01 0.02 0.01 0.00 0.00 0.00 0.00 0.00 0.00 0.00 0.00 0.00 0.00 0.00 0.00 0.00 0.00 0.00 0.00 0.00 0.00 0.00 0.00 0.00 0.00 0.00 0.00 0.00 0.00 0.00 0.00 0.00 0.00 0.00 0.00 0.00
0.07 0.09 0.06 0.03 0.06 0.10 0.03 0.00 0.00 0.00 0.00 0.00 0.00 0.00 0.00 0.00 0.00 0.00 0.00 0.00 0.00 0.00 0.00 0.00 0.00 0.00 0.00 0.00 0.00 0.00 0.00 0.00 0.00 0.00 0.00 0.00 0.00 0.00 0.00 0.00 0.00 0.00 0.00
0.00 0.08 0.12 0.05 0.04 0.14 0.17 0.05 0.00 0.00 0.00 0.00 0.00 0.00 0.00 0.00 0.00 0.00 0.00 0.00 0.00 0.00 0.00 0.00 0.00 0.00 0.00 0.00 0.00 0.00 0.00 0.00 0.00 0.00 0.00 0.01 0.00 0.00 0.00 0.00 0.00 0.00 0.00
0.00 0.00 0.06 0.07 0.08 0.05 0.10 0.13 0.08 0.00 0.00 0.00 0.00 0.00 0.00 0.00 0.00 0.00 0.00 0.00 0.00 0.00 0.00 0.00 0.00 0.00 0.00 0.00 0.00 0.00 0.00 0.00 0.00 0.00 0.00 0.00 0.01 0.01 0.00 0.00 0.00 0.00 0.00
0.00 0.01 0.01 0.00 0.02 0.03 0.11 0.16 0.12 0.06 0.01 0.00 0.00 0.00 0.00 0.00 0.00 0.00 0.00 0.00 0.00 0.00 0.00 0.00 0.00 0.00 0.00 0.00 0.00 0.00 0.00 0.00 0.00 0.00 0.00 0.00 0.00 0.00 0.00 0.01 0.00 0.00 0.00
0.01 0.01 0.02 0.01 0.00 0.02 0.03 0.10 0.17 0.11 0.04 0.01 0.01 0.01 0.01 0.00 0.00 0.00 0.00 0.00 0.00 0.00 0.00 0.00 0.00 0.00 0.00 0.00 0.00 0.00 0.00 0.00 0.00 0.00 0.00 0.00 0.00 0.00 0.00 0.00 0.00 0.01 0.01
0.00 0.00 0.01 0.01 0.00 0.02 0.04 0.07 0.11 0.05 0.05 0.07 0.06 0.06 0.04 0.01 0.00 0.00 0.00 0.00 0.00 0.01 0.00 0.00 0.00 0.00 0.00 0.00 0.00 0.00 0.00 0.00 0.00 0.00 0.00 0.00 0.00 0.00 0.00 0.00 0.00 0.00 0.00
0.00 0.00 0.00 0.00 0.00 0.00 0.01 0.02 0.02 0.03 0.04 0.07 0.06 0.05 0.03 0.01 0.00 0.00 0.00 0.00 0.00 0.01 0.00 0.00 0.00 0.00 0.00 0.00 0.00 0.00 0.00 0.00 0.00 0.00 0.00 0.00 0.00 0.00 0.00 0.00 0.00 0.00 0.00
0.00 0.00 0.00 0.00 0.01 0.00 0.00 0.01 0.00 0.00 0.01 0.02 0.03 0.03 0.01 0.00 0.00 0.00 0.00 0.00 0.00 0.00 0.00 0.00 0.00 0.00 0.00 0.00 0.00 0.00 0.00 0.00 0.00 0.00 0.00 0.00 0.00 0.00 0.00 0.00 0.00 0.00 0.00
0.00 0.00 0.00 0.00 0.00 0.00 0.00 0.00 0.00 0.00 0.00 0.00 0.00 0.00 0.00 0.00 0.00 0.00 0.00 0.00 0.00 0.01 0.01 0.00 0.00 0.00 0.00 0.00 0.00 0.00 0.00 0.00 0.00 0.00 0.00 0.00 0.00 0.00 0.00 0.00 0.00 0.00 0.00
0.00 0.00 0.00 0.00 0.00 0.00 0.00 0.00 0.00 0.00 0.00 0.00 0.00 0.00 0.00 0.00 0.00 0.00 0.00 0.00 0.01 0.02 0.03 0.01 0.01 0.00 0.00 0.00 0.00 0.00 0.00 0.00 0.00 0.00 0.00 0.00 0.00 0.00 0.00 0.00 0.00 0.00 0.00
0.00 0.00 0.00 0.00 0.00 0.00 0.00 0.00 0.00 0.00 0.00 0.00 0.00 0.01 0.00 0.01 0.01 0.01 0.00 0.00 0.00 0.00 0.01 0.01 0.00 0.00 0.00 0.00 0.00 0.00 0.00 0.00 0.00 0.00 0.00 0.00 0.00 0.00 0.00 0.00 0.00 0.00 0.00
0.00 0.00 0.00 0.00 0.00 0.00 0.00 0.00 0.00 0.00 0.00 0.00 0.00 0.00 0.00 0.01 0.01 0.01 0.01 0.00 0.00 0.00 0.00 0.00 0.00 0.00 0.00 0.00 0.00 0.00 0.00 0.00 0.00 0.00 0.00 0.00 0.00 0.00 0.00 0.00 0.00 0.00 0.00
0.00 0.00 0.00 0.00 0.00 0.00 0.00 0.00 0.00 0.00 0.00 0.00 0.00 0.00 0.00 0.00 0.00 0.00 0.00 0.00 0.00 0.00 0.00 0.00 0.00 0.00 0.00 0.00 0.00 0.00 0.00 0.00 0.00 0.00 0.00 0.00 0.00 0.00 0.00 0.00 0.00 0.00 0.00
0.00 0.00 0.00 0.00 0.00 0.00 0.00 0.00 0.00 0.00 0.00 0.00 0.00 0.00 0.00 0.00 0.00 0.00 0.00 0.00 0.00 0.00 0.00 0.00 0.00 0.00 0.00 0.00 0.00 0.00 0.00 0.00 0.00 0.00 0.00 0.00 0.00 0.00 0.00 0.00 0.00 0.00 0.00
0.00 0.00 0.00 0.00 0.00 0.00 0.00 0.00 0.00 0.00 0.00 0.00 0.00 0.00 0.00 0.00 0.00 0.00 0.00 0.00 0.00 0.00 0.00 0.00 0.00 0.00 0.00 0.00 0.00 0.00 0.00 0.00 0.00 0.00 0.00 0.00 0.00 0.00 0.00 0.00 0.02 0.03 0.07
0.01 0.01 0.00 0.00 0.00 0.01 0.00 0.00 0.01 0.01 0.01 0.01 0.01 0.00 0.00 0.00 0.00 0.00 0.00 0.00 0.00 0.00 0.00 0.00 0.00 0.01 0.04 0.03 0.02 0.02 0.02 0.00 0.00 0.01 0.00 0.01 0.01 0.03 0.03 0.04 0.13 0.06 0.04
0.03 0.03 0.03 0.04 0.04 0.04 0.04 0.01 0.01 0.01 0.01 0.02 0.02 0.03 0.04 0.04 0.06 0.07 0.04 0.01 0.02 0.05 0.08 0.09 0.14 0.12 0.10 0.08 0.05 0.04 0.06 0.13 0.14 0.10 0.08 0.08 0.06 0.07 0.06 0.06 0.08 0.12 0.08
0.02 0.03 0.04 0.04 0.06 0.02 0.05 0.01 0.02 0.03 0.03 0.02 0.02 0.05 0.10 0.08 0.08 0.08 0.08 0.08 0.10 0.12 0.15 0.13 0.17 0.16 0.15 0.13 0.12 0.08 0.06 0.08 0.17 0.19 0.14 0.10 0.09 0.10 0.10 0.11 0.11 0.13 0.14
MSLP
1014.97 1015.20 1015.70 1015.98 1016.08 1016.51 1016.79 1017.59 1018.21 1018.71 1019.10 1019.56 1020.26 1020.66 1021.17 1021.56 1022.02 1022.20 1022.50 1023.13 1023.52 1023.99 1024.18 1024.51 1024.91 1025.34 1025.76 1026.16 1026.42 1026.77 1027.04 1027.43 1027.48 1027.87 1028.27 1028.57 1028.71 1028.82 1028.97 1029.11 1029.27 1029.38 1029.59
1014.77 1015.12 1015.31 1015.64 1015.83 1016.19 1016.90 1017.41 1017.98 1018.39 1018.91 1019.50 1020.30 1020.86 1021.26 1021.64 1022.08 1022.42 1022.55 1023.12 1023.68 1024.07 1024.31 1024.60 1024.99 1025.49 1025.87 1026.35 1026.61 1026.94 1027.11 1027.35 1027.57 1027.91 1028.28 1028.58 1028.77 1029.03 1029.29 1029.40 1029.44 1029.52 1029.76
1014.32 1014.62 1015.01 1015.28 1015.09 1015.69 1016.69 1017.57 1018.03 1018.61 1019.00 1019.59 1020.35 1021.02 1021.48 1021.79 1022.13 1022.54 1022.82 1023.27 1023.98 1024.27 1024.41 1024.65 1025.15 1025.62 1026.04 1026.38 1026.74 1027.05 1027.17 1027.47 1027.76 1028.08 1028.37 1028.63 1028.85 1029.10 1029.39 1029.55 1029.57 1029.70 1029.71
1013.94 1014.26 1014.54 1014.54 1014.74 1015.44 1016.51 1017.22 1017.99 1018.91 1019.47 1019.77 1020.41 1020.99 1021.48 1022.07 1022.43 1022.72 1022.94 1023.38 1023.97 1024.27 1024.65 1024.90 1025.14 1025.55 1026.10 1026.47 1026.87 1027.13 1027.37 1027.61 1027.83 1028.18 1028.45 1028.69 1028.89 1029.18 1029.44 1029.59 1029.63 1029.74 1029.82
1013.71 1014.07 1014.32 1014.57 1014.77 1015.60 1016.52 1017.08 1017.86 1018.68 1019.46 1019.98 1020.65 1021.08 1021.59 1021.95 1022.63 1022.66 1023.08 1023.45 1023.93 1024.29 1024.59 1025.04 1025.27 1025.58 1025.97 1026.40 1026.82 1027.01 1027.24 1027.51 1027.77 1028.10 1028.42 1028.66 1028.84 1028.99 1029.30 1029.52 1029.55 1029.56 1029.77
1013.44 1013.99 1014.30 1014.80 1015.03 1015.57 1016.73 1017.43 1018.12 1019.00 1019.35 1019.77 1020.65 1021.38 1021.85 1022.31 1022.49 1022.74 1023.04 1023.38 1023.79 1024.29 1024.66 1024.94 1025.38 1025.56 1025.82 1026.25 1026.61 1026.91 1027.03 1027.23 1027.47 1027.81 1028.05 1028.43 1028.68 1028.80 1029.02 1029.23 1029.37 1029.35 1029.54
1013.14 1013.69 1014.20 1014.87 1015.17 1015.65 1016.33 1017.49 1018.27 1018.96 1019.61 1020.09 1020.86 1021.84 1022.34 1022.65 1022.76 1022.87 1023.04 1023.26 1023.69 1024.16 1024.49 1024.83 1025.05 1025.24 1025.69 1026.09 1026.39 1026.58 1026.75 1026.83 1027.14 1027.48 1027.67 1027.91 1028.26 1028.48 1028.67 1028.77 1028.91 1029.04 1029.10
1012.86 1013.11 1013.85 1014.40 1015.00 1015.77 1016.44 1017.31 1017.96 1018.69 1019.19 1019.61 1019.86 1021.13 1022.12 1022.91 1022.89 1022.93 1022.97 1023.21 1023.59 1023.98 1024.37 1024.76 1024.89 1024.99 1025.27 1025.64 1025.82 1026.13 1026.17 1026.26 1026.49 1026.81 1027.10 1027.42 1027.69 1027.97 1028.14 1028.27 1028.41 1028.55 1028.70
1012.50 1012.79 1012.98 1013.96 1014.43 1015.35 1016.25 1016.67 1017.40 1017.76 1018.50 1019.20 1019.29 1019.38 1020.83 1021.36 1022.23 1022.71 1022.88 1023.04 1023.42 1023.68 1023.79 1024.04 1024.57 1024.84 1024.97 1025.19 1025.63 1025.92 1025.90 1025.95 1025.99 1026.11 1026.35 1026.65 1026.94 1027.23 1027.50 1027.70 1027.86 1027.93 1028.07
1012.23 1012.38 1013.01 1013.31 1014.22 1014.74 1015.69 1016.26 1016.83 1017.26 1017.63 1018.32 1019.14 1019.46 1019.39 1019.73 1020.72 1021.99 1022.58 1022.87 1022.97 1023.21 1023.51 1023.57 1023.95 1024.30 1024.53 1024.78 1024.99 1025.27 1025.34 1025.60 1025.64 1025.72 1025.78 1025.87 1026.10 1026.35 1026.53 1026.77 1026.92 1027.09 1027.16
1011.95 1012.05 1012.64 1013.00 1013.82 1014.38 1015.14 1015.73 1016.48 1016.92 1017.09 1017.42 1018.10 1018.91 1019.28 1019.72 1019.86 1020.34 1021.09 1022.15 1022.67 1022.58 1022.68 1023.00 1023.24 1023.60 1023.95 1024.12 1024.14 1024.47 1024.80 1025.00 1025.09 1025.20 1025.28 1025.38 1025.44 1025.60 1025.72 1025.88 1026.01 1026.07 1026.12
1011.68 1011.79 1012.14 1012.82 1013.35 1013.93 1014.53 1015.29 1015.92 1016.45 1016.79 1017.34 1017.76 1018.23 1018.31 1018.89 1019.35 1019.78 1020.40 1021.10 1021.02 1021.65 1022.20 1022.45 1022.67 1022.81 1023.02 1023.16 1023.24 1023.57 1023.87 1024.20 1024.35 1024.51 1024.62 1024.56 1024.72 1024.82 1024.95 1025.02 1025.07 1025.12 1025.12
1011.40 1011.44 1011.83 1012.28 1013.10 1013.65 1014.41 1014.92 1015.56 1015.95 1016.46 1016.73 1017.24 1017.76 1017.92 1018.17 1018.53 1019.04 1019.19 1019.97 1020.52 1021.11 1021.47 1021.53 1021.53 1021.72 1022.13 1022.28 1022.36 1022.78 1022.97 1023.17 1023.39 1023.53 1023.68 1023.68 1023.80 1023.95 1024.06 1024.04 1024.07 1024.10 1024.07
1011.29 1011.48 1011.72 1012.14 1012.63 1013.37 1013.96 1014.56 1015.11 1015.35 1016.03 1016.49 1016.80 1017.28 1017.74 1018.59 1018.23 1018.12 1018.19 1019.11 1020.08 1020.31 1020.57 1020.11 1020.68 1020.80 1021.01 1021.25 1021.25 1021.68 1022.02 1022.32 1022.52 1022.65 1022.72 1022.80 1022.92 1023.02 1023.00 1023.02 1023.07 1022.97 1022.90
1011.23 1011.45 1011.72 1012.19 1012.62 1013.06 1013.60 1013.88 1014.51 1015.00 1015.36 1015.77 1016.23 1017.04 1017.92 1018.01 1018.25 1017.88 1018.09 1018.49 1019.08 1019.67 1019.56 1019.55 1019.89 1019.98 1019.85 1020.40 1020.62 1021.02 1021.39 1021.34 1021.62 1021.77 1021.91 1021.83 1021.93 1021.98 1021.97 1021.95 1022.06 1021.98 1021.80
1011.13 1011.44 1011.79 1012.22 1012.63 1012.95 1013.30 1013.87 1014.30 1014.84 1015.30 1015.57 1016.03 1017.13 1017.44 1017.58 1017.84 1017.86 1018.17 1018.30 1018.82 1019.19 1018.91 1018.47 1018.84 1019.15 1019.22 1019.68 1020.05 1020.16 1020.01 1020.17 1020.48 1020.57 1020.82 1020.96 1020.85 1020.72 1020.73 1020.69 1020.65 1020.52 1020.51
1010.91 1011.37 1011.74 1012.08 1012.53 1012.98 1013.34 1013.75 1014.11 1014.49 1014.95 1015.43 1015.94 1016.50 1016.90 1017.35 1017.54 1017.38 1017.61 1017.93 1018.22 1018.49 1018.32 1017.68 1017.93 1018.16 1018.88 1018.87 1018.83 1019.08 1019.10 1019.24 1019.26 1019.35 1019.59 1019.37 1019.38 1019.45 1019.38 1019.29 1019.09 1019.33 1019.22
1010.75 1011.08 1011.55 1011.93 1012.27 1012.71 1013.08 1013.49 1013.94 1014.31 1014.62 1015.05 1015.58 1016.23 1016.42 1016.80 1017.04 1017.13 1017.32 1017.58 1017.74 1017.94 1017.97 1017.17 1017.27 1017.49 1017.81 1017.96 1017.79 1018.02 1017.95 1017.93 1018.08 1018.03 1018.04 1018.17 1018.34 1018.33 1018.21 1018.00 1018.03 1018.01 1017.87
1010.20 1010.65 1011.14 1011.66 1012.06 1012.43 1012.83 1013.22 1013.60 1013.98 1014.42 1014.82 1015.23 1015.63 1015.93 1016.32 1016.70 1016.87 1017.09 1017.27 1017.19 1017.35 1017.22 1016.89 1016.35 1016.43 1016.86 1017.20 1017.10 1017.19 1017.09 1017.15 1017.03 1016.54 1016.58 1016.58 1016.57 1016.54 1016.64 1016.75 1016.79 1016.80 1016.72
1009.73 1010.08 1010.41 1010.75 1011.25 1011.87 1012.35 1012.73 1013.09 1013.42 1013.78 1014.09 1014.41 1014.80 1015.17 1015.43 1015.68 1015.96 1016.27 1016.45 1016.62 1016.59 1016.67 1016.53 1015.98 1015.76 1015.91 1015.68 1016.13 1015.92 1015.80 1015.85 1015.65 1015.45 1015.44 1015.37 1015.22 1015.34 1015.38 1015.35 1015.32 1015.17 1015.08
1009.35 1009.60 1009.93 1010.33 1010.73 1011.13 1011.47 1011.94 1012.41 1012.81 1013.09 1013.28 1013.44 1013.67 1013.81 1013.98 1014.27 1014.67 1015.06 1015.40 1015.70 1015.79 1015.74 1015.50 1015.13 1015.13 1014.83 1014.93 1014.80 1014.72 1014.60 1014.18 1013.82 1013.97 1013.84 1013.95 1013.84 1013.82 1013.66 1013.93 1014.12 1014.25 1014.43
1009.00 1009.32 1009.50 1009.69 1009.97 1010.23 1010.50 1011.03 1011.41 1011.67 1011.99 1012.23 1012.33 1012.52 1012.69 1012.97 1013.22 1013.48 1013.70 1013.92 1014.16 1014.50 1014.49 1014.39 1014.16 1014.01 1013.67 1013.79 1013.74 1013.75 1013.54 1013.39 1012.81 1012.93 1012.74 1012.34 1012.46 1012.65 1012.83 1013.08 1013.60 1013.80 1013.93
1008.71 1008.98 1009.24 1009.47 1009.55 1009.85 1010.23 1010.39 1010.70 1010.90 1011.04 1011.10 1011.29 1011.42 1011.56 1011.73 1012.06 1012.37 1012.67 1012.87 1013.15 1013.21 1013.09 1012.96 1012.81 1012.74 1012.63 1012.71 1012.72 1012.82 1012.60 1012.08 1011.38 1011.61 1012.04 1011.88 1013.18 1013.87 1014.56 1014.30 1013.96 1014.01 1013.96
1008.72 1008.69 1008.93 1009.10 1009.34 1010.94 1011.10 1010.62 1010.31 1010.50 1010.54 1010.61 1010.72 1010.74 1010.89 1010.92 1011.20 1011.49 1011.67 1011.72 1011.93 1012.24 1012.47 1012.60 1012.50 1012.18 1012.45 1012.89 1012.81 1012.42 1011.96 1011.34 1011.53 1012.83 1013.27 1012.75 1013.91 1015.01 1015.42 1015.38 1014.99 1014.61 1014.64
1009.75 1010.16 1010.70 1010.38 1010.41 1011.83 1011.68 1011.27 1010.83 1010.75 1010.59 1010.43 1010.55 1011.00 1011.61 1011.40 1011.38 1011.62 1011.54 1011.35 1011.29 1011.64 1012.73 1012.67 1013.54 1014.48 1014.73 1014.30 1013.32 1012.77 1012.61 1012.65 1012.63 1013.61 1014.31 1014.17 1014.82 1015.68 1016.22 1016.43 1016.35 1015.70 1015.91
1011.09 1011.51 1012.04 1012.39 1012.67 1012.66 1012.39 1011.68 1011.00 1010.47 1010.58 1011.09 1012.11 1012.53 1012.70 1012.47 1012.01 1011.57 1011.44 1011.41 1011.50 1012.00 1012.94 1013.69 1014.37 1014.70 1014.84 1015.17 1015.13 1014.63 1013.58 1013.40 1013.57 1014.72 1015.48 1015.44 1015.41 1015.59 1016.82 1017.41 1017.36 1017.00 1016.57
Thickness
5632 5628 5622 5620 5621 5620 5623 5621 5621 5621 5621 5619 5618 5618 5618 5618 5618 5619 5619 5617 5616 5614 5614 5614 5612 5611 5610 5607 5607 5605 5604 5601 5600 5597 5594 5592 5592 5592 5591 5591 5590 5589 5587
5628 5624 5620 5615 5613 5615 5616 5619 5616 5618 5618 5617 5614 5612 5612 5613 5613 5612 5613 5611 5610 5609 5609 5609 5608 5606 5604 5602 5602 5600 5599 5598 5596 5593 5590 5588 5586 5584 5583 5583 5583 5583 5581
5625 5622 5618 5611 5614 5612 5612 5612 5612 5614 5612 5612 5609 5607 5605 5606 5607 5606 5606 5605 5603 5603 5604 5604 5602 5600 5599 5598 5597 5595 5595 5592 5590 5587 5584 5582 5580 5578 5577 5577 5577 5576 5577
5622 5620 5618 5613 5612 5611 5609 5610 5610 5606 5604 5606 5604 5602 5600 5599 5599 5599 5600 5600 5598 5598 5597 5597 5597 5596 5593 5592 5590 5589 5588 5585 5583 5581 5578 5576 5574 5572 5570 5570 5571 5570 5571
5618 5617 5616 5611 5608 5606 5606 5608 5606 5605 5601 5600 5597 5596 5594 5594 5591 5593 5593 5594 5592 5592 5592 5591 5590 5590 5588 5586 5584 5583 5582 5580 5578 5575 5572 5570 5568 5567 5565 5564 5565 5566 5565
5617 5612 5611 5607 5605 5605 5602 5600 5599 5597 5598 5597 5591 5589 5588 5586 5587 5588 5588 5589 5587 5586 5585 5584 5583 5582 5582 5580 5578 5576 5576 5574 5572 5569 5567 5564 5562 5562 5560 5560 5559 5561 5560
5616 5611 5608 5606 5603 5602 5602 5598 5595 5593 5592 5591 5586 5580 5579 5579 5581 5583 5584 5584 5583 5581 5580 5578 5578 5579 5576 5574 5572 5570 5569 5569 5566 5563 5562 5560 5557 5556 5556 5557 5556 5556 5556
5616 5613 5608 5606 5605 5600 5599 5594 5592 5590 5591 5589 5590 5580 5574 5573 5578 5579 5580 5580 5578 5576 5574 5572 5573 5574 5571 5570 5568 5566 5566 5564 5562 5559 5557 5554 5552 5551 5551 5552 5553 5552 5551
5616 5614 5614 5607 5606 5602 5595 5596 5593 5593 5588 5587 5591 5591 5577 5579 5576 5575 5575 5575 5572 5571 5571 5572 5567 5566 5566 5564 5560 5559 5558 5557 5556 5555 5553 5551 5549 5548 5547 5548 5547 5548 5548
5616 5615 5610 5610 5604 5602 5597 5597 5595 5594 5595 5591 5588 5587 5590 5591 5582 5572 5570 5569 5570 5569 5566 5567 5564 5561 5561 5559 5557 5554 5553 5552 5551 5551 5551 5549 5548 5547 5547 5546 5546 5547 5547
5616 5615 5611 5609 5604 5603 5597 5594 5592 5592 5595 5595 5592 5586 5584 5583 5584 5580 5574 5565 5564 5566 5565 5562 5562 5559 5558 5557 5556 5553 5550 5548 5548 5548 5547 5547 5546 5545 5544 5545 5545 5547 5547
5615 5614 5611 5605 5602 5600 5598 5594 5591 5590 5592 5590 5588 5586 5587 5584 5581 5577 5571 5566 5569 5566 5561 5560 5560 5558 5556 5555 5554 5551 5549 5547 5547 5546 5546 5547 5545 5545 5544 5545 5545 5546 5547
5614 5613 5610 5607 5602 5599 5593 5589 5586 5584 5585 5588 5586 5584 5585 5585 5583 5578 5575 5569 5565 5563 5559 5561 5560 5558 5554 5553 5552 5550 5549 5550 5549 5548 5547 5548 5548 5547 5546 5546 5547 5547 5547
5612 5609 5607 5605 5602 5597 5590 5584 5583 5585 5583 5583 5583 5581 5579 5573 5578 5579 5577 5568 5560 5561 5559 5564 5557 5558 5555 5554 5554 5552 5550 5550 5550 5550 5550 5551 5550 5549 5549 5548 5548 5549 5549
5610 5608 5604 5602 5600 5596 5591 5588 5585 5585 5584 5583 5580 5575 5570 5570 5569 5573 5571 5568 5563 5558 5560 5560 5558 5557 5558 5554 5553 5550 5548 5549 5549 5550 5550 5552 5551 5551 5550 5551 5549 5549 5550
5609 5607 5603 5599 5597 5594 5591 5588 5585 5583 5579 5577 5576 5568 5566 5566 5565 5565 5563 5562 5558 5555 5557 5562 5559 5559 5558 5553 5551 5551 5552 5552 5551 5552 5551 5551 5551 5552 5552 5552 5552 5553 5552
5607 5604 5601 5598 5594 5591 5588 5584 5582 5581 5579 5574 5572 5569 5566 5563 5561 5563 5562 5560 5558 5555 5556 5563 5561 5559 5552 5553 5555 5552 5553 5553 5554 5554 5553 5555 5554 5554 5554 5554 5556 5553 5552
5604 5602 5598 5595 5593 5590 5588 5585 5582 5580 5577 5575 5572 5567 5566 5564 5562 5560 5558 5557 5556 5553 5551 5560 5558 5557 5554 5554 5555 5553 5554 5555 5554 5555 5556 5554 5553 5553 5553 5553 5551 5550 5551
5605 5602 5599 5595 5592 5590 5587 5585 5583 5580 5577 5573 5570 5567 5565 5562 5559 5558 5557 5556 5555 5552 5552 5555 5562 5560 5556 5553 5553 5552 5554 5552 5553 5558 5556 5555 5555 5554 5552 5550 5548 5547 5546
5602 5601 5600 5598 5595 5590 5585 5582 5580 5578 5575 5572 5570 5567 5564 5563 5561 5559 5558 5555 5552 5552 5550 5550 5556 5557 5555 5560 5551 5556 5554 5552 5551 5551 5552 5553 5551 5549 5549 5548 5546 5545 5545
5598 5598 5596 5594 5592 5590 5588 5583 5579 5575 5573 5572 5571 5570 5570 5569 5566 5562 5559 5556 5552 5550 5549 5550 5553 5552 5557 5554 5553 5554 5549 5554 5554 5552 5552 5548 5547 5546 5545 5542 5538 5536 5532
5594 5593 5593 5593 5592 5591 5588 5582 5580 5580 5577 5575 5574 5572 5571 5567 5565 5561 5559 5558 5556 5552 5552 5551 5551 5550 5555 5553 5553 5550 5550 5548 5550 5552 5546 5548 5544 5544 5535 5531 5526 5522 5519
5589 5589 5588 5588 5588 5587 5580 5579 5577 5580 5577 5577 5575 5575 5574 5572 5567 5565 5559 5555 5551 5549 5550 5555 5552 5551 5550 5549 5549 5548 5548 5549 5552 5546 5540 5542 5521 5516 5511 5510 5510 5506 5503
5581 5583 5582 5582 5582 5567 5566 5570 5571 5572 5572 5572 5571 5571 5569 5569 5566 5562 5560 5558 5556 5551 5547 5542 5542 5546 5542 5534 5532 5535 5538 5541 5534 5521 5515 5520 5502 5491 5488 5487 5487 5487 5484
5562 5557 5556 5560 5561 5550 5552 5555 5557 5559 5560 5561 5560 5556 5550 5553 5551 5547 5549 5550 5549 5545 5532 5530 5522 5511 5505 5505 5511 5513 5514 5513 5516 5498 5488 5488 5478 5469 5462 5459 5458 5460 5455
5542 5540 5536 5534 5532 5533 5535 5540 5544 5549 5549 5542 5530 5526 5525 5527 5530 5534 5534 5533 5534 5530 5516 5507 5499 5494 5491 5487 5484 5486 5489 5491 5489 5472 5459 5456 5451 5449 5435 5427 5426 5426 5428